Skip Page Navigation
NASA JPL Caltech
NASA Logo - Jet Propulsion Laboratory + View the NASA Portal
+ Center for Near-Earth Object Studies
JPL Home Earth Solar System Stars & Galaxies Technology
JPL Solar System Dynamics
BODIES ORBITS EPHEMERIDES TOOLS PHYSICAL DATA DISCOVERY FAQ SITE MAP
JPL Small-Body Database Browser
Search: [ help ]  
90875 (1996 VE1)
Classification: Main-belt Asteroid          SPK-ID: 2090875
Ephemeris | Orbit Diagram | Orbital Elements | Mission Design | Physical Parameters | Discovery Circumstances | Close-Approach Data ]

[ show orbit diagram ]
Orbital Elements at Epoch 2459000.5 (2020-May-31.0) TDB
Reference: JPL 25 (heliocentric ecliptic J2000)
 Element Value Uncertainty (1-sigma)   Units 
e .09740347004492173 5.034e-08  
a 2.541994004293402 1.2568e-08 au
q 2.294394967441839 1.3342e-07 au
i 7.433149447342593 3.6934e-06 deg
node 126.0432945976998 3.5792e-05 deg
peri 272.0381352715839 4.0582e-05 deg
M 305.303006190188 2.163e-05 deg
tp 2459225.416422332178
(2021-Jan-10.91642233)
8.9758e-05 TDB
period 1480.33568940052
4.05
1.0978e-05
3.006e-08
d
yr
n .2431880840120706 1.8035e-09 deg/d
Q 2.789593041144965 1.3792e-08 au
  Orbit Determination Parameters
   # obs. used (total)      1165  
   data-arc span      8672 days (23.74 yr)  
   first obs. used      1996-11-03  
   last obs. used      2020-08-01  
   planetary ephem.      DE431  
   SB-pert. ephem.      SB431-N16  
   condition code      0  
   norm. resid. RMS      .54922  
   source      ORB  
   producer      Otto Matic  
   solution date      2020-Aug-25 08:14:20  

Additional Information
 Earth MOID = 1.31628 au 
 Jupiter MOID = 2.56524 au 
 T_jup = 3.427 
[ show covariance matrix ]

Ephemeris | Orbit Diagram | Orbital Elements | Mission Design | Physical Parameters | Discovery Circumstances | Close-Approach Data ]

Physical Parameter Table
Parameter Symbol Value Units Sigma Reference Notes
absolute magnitude H 14.7   n/a MPO344926  
diameter diameter 6.500 km 0.071 urn:nasa:pds:neowise_diameters_albedos::2.0[mainbelt] (http://adsabs.harvard.edu/abs/2011ApJ...741...68M)  
geometric albedo albedo 0.066   0.015 urn:nasa:pds:neowise_diameters_albedos::2.0[mainbelt] (http://adsabs.harvard.edu/abs/2011ApJ...741...68M)  

90875 (1996 VE1)          Discovered 1996-Nov-03 by Saji at Saji
Reference: 20041028/Numbers.arcLast Updated: 2004-10-29

[ show close-approach data ]
Alternate Designations
 1996 VE1 = 1998 EW14 
Ephemeris | Orbit Diagram | Orbital Elements | Mission Design | Physical Parameters | Discovery Circumstances | Close-Approach Data ]
ABOUT SSD CREDITS/AWARDS PRIVACY/COPYRIGHT GLOSSARY LINKS
FirstGov 2020-Sep-20 12:16 UT
(server date/time)  
NASA Home Page
Site Manager:   Ryan S. Park
Webmaster  Alan B. Chamberlin